SL-8 DEB, 3038

Orbit data source: Space-Track

SL-8 DEB, 3038 is space debris in LEO originally from a launch on Mon, 15 Mar 1965 UTC launched from the Tyuratam Missile And Space Complex (TTMTR). Debris objects in space refer to the collection of defunct objects orbiting the Earth. Examples of debris include non-operational satellites, rocket bodies, and fragments generated from explosions, collisions, or faulty payload assembly.

Loading next visibility...
Identifier
3038, 1965-020EN
Orbit
LEO
Country
Flag of CISCIS
Related business
Manufacturer
Unknown
Mission
Spacecraft
Bus & Motor
Unknown
Mass
Unknown
Launch date (UTC)
1965-03-15 (61 years ago)
Launch vehicle
Unknown
Launch site
Tyuratam Missile And Space Complex (TTMTR)
Object type
Payload
Rocket body
Debris
Shape & HBR
Unknown shape, 0.1 m
Radar Cross Section
Medium (>0.1 m² and <1 m²)

Expand to show TLE details & history
Last TLE update: 11 hours ago

TLE from 11 hours ago
0 SL-8 DEB
1 03038U 65020EN  26110.38415607  .00001452  00000-0  35192-3 0  9996
2 03038  56.1653 184.0837 0384279  45.3805 317.7857 14.21802042217597
Epoch: 2026-04-20T09:13Z
TLE epoch observation values (Epoch: 2026-04-20T09:13:11.084Z)
Latitude
-0.00003°
Longitude
-162.68757°
Altitude
620.579 km
Speed
7.653 km/s
True Right ascension
12h 16m 20s
True Declination
0° 00' 00"
Sunlit
Object was in full shadow at epoch
Visualization orbit readout
Latitude
Unknown
Longitude
Unknown
Altitude
Unknown
Speed
Unknown
Apparent Right ascension
Unknown
Apparent Declination
Unknown
Sunlit
N/A
Visualization observer readout
Local Sidereal Time
02:49:03
Azimuth
Unknown
Elevation
Unknown
Doppler factor
Unknown
Orbital elements
Apogee altitude
1,095.628 km
Perigee altitude
542.482 km
Semi-major axis
7,197.192 km
Eccentricity
0.03843
Inclination
56.1653°
RAAN
184.0837°
Arg. of periapsis
45.3805°
True anomaly
314.71945°
Mean anomaly
317.7857°
Eccentric anomaly
316.26353°
Mean motion
3.55466 °/min
Orbital period
101.28 mins
BSTAR
0.00035192
Loading maneuver chart data...
Computing Atmospheric mass density...
Loading historical data...
Loading historical data...
Loading historical data...
Loading historical data...
Loading historical data...
Loading historical data...
Loading historical data...

Documentation

Showing up to 5 results
|